Weather History for Prince Rupert, BC

Change the Weather History Date:

Wednesday, December 5, 2012

  Actual Average Record
Temperature  
Mean Temperature 36 °F -  
Max Temperature 39 °F 41 °F 50 °F (2008)
Min Temperature 33 °F 33 °F 21 °F (2007)
Degree Days  
Heating Degree Days 29    
Moisture  
Dew Point 34 °F    
Average Humidity 93    
Maximum Humidity 100    
Minimum Humidity 81    
Precipitation  
Precipitation 0.00 in - - ()
Sea Level Pressure  
Sea Level Pressure 29.73 in    
Wind  
Wind Speed 9 mph ()    
Max Wind Speed 17 mph    
Max Gust Speed 26 mph    
Visibility 7.6 miles    
Events Rain , Snow    
Averages and records for this station are not official NWS values.
T = Trace of Precipitation, MM = Missing Value Source: Averaged Metar Reports

Daily Weather History Graph

Daily Weather History Graph

Search for Another Location

Airport:

Trip Planner

Search our weather history database for the weather conditions in past years. The results will help you decide how hot, cold, wet, or windy it might be!

Date:

Astronomy

Dec. 05, 2012 Rise Set
Actual Time 8:45 AM PST 4:19 PM PST
Civil Twilight 8:02 AM PST 5:02 PM PST
Nautical Twilight 7:16 AM PST 5:48 PM PST
Astronomical Twilight 6:33 AM PST 6:31 PM PST
Moon No Moon Rise 12:27 PM PST (12/5)
Length of Visible Light 9h 00m
Length of Day
7h 33m
Waning Gibbous, 58% of the Moon is Illuminated
Dec 5
Waning Gibbous
Dec 6
Last Quarter
Dec 13
New
Dec 19
First Quarter
Dec 28
Full

Hourly Weather History & Observations

Time (PST) Temp. Windchill Dew Point Humidity Pressure Visibility Wind Dir Wind Speed Gust Speed Precip Events Conditions
12:00 AM 35.6 °F 30.7 °F 32.0 °F 87% 29.46 in 9.0 mi SSE 5.8 mph - N/A   Mostly Cloudy
12:18 AM 35.6 °F 29.9 °F 32.0 °F 87% 29.47 in 9.0 mi SE 6.9 mph - N/A Rain Light Rain
12:31 AM 35.6 °F 29.2 °F 32.0 °F 87% 29.48 in 9.0 mi SE 8.1 mph - N/A   Mostly Cloudy
1:00 AM 35.6 °F 29.9 °F 33.8 °F 93% 29.49 in 9.0 mi SE 6.9 mph - N/A   Mostly Cloudy
2:00 AM 35.6 °F 30.7 °F 32.0 °F 87% 29.52 in 9.0 mi SE 5.8 mph - N/A   Clear
2:58 AM 35.6 °F 29.2 °F 33.8 °F 93% 29.55 in 9.0 mi SE 8.1 mph - N/A Rain Light Rain
3:00 AM 35.6 °F 29.9 °F 33.8 °F 93% 29.56 in 9.0 mi SSE 6.9 mph - N/A Rain Light Rain
3:21 AM 37.4 °F 31.4 °F 33.8 °F 87% 29.57 in 9.0 mi South 8.1 mph 18.4 mph N/A Rain Rain
3:36 AM 35.6 °F 29.2 °F 33.8 °F 93% 29.58 in 5.0 mi SE 8.1 mph - N/A Rain Rain
3:42 AM 35.6 °F 29.9 °F 33.8 °F 93% 29.58 in 4.0 mi SE 6.9 mph - N/A   Overcast
3:45 AM 35.6 °F 29.9 °F 33.8 °F 93% 29.58 in 6.0 mi SE 6.9 mph - N/A   Overcast
3:48 AM 35.6 °F 31.7 °F 33.8 °F 93% 29.58 in 9.0 mi SSE 4.6 mph - N/A   Overcast
3:51 AM 35.6 °F 32.8 °F 33.8 °F 93% 29.58 in 9.0 mi ESE 3.5 mph - N/A   Overcast
4:00 AM 35.6 °F 29.2 °F 33.8 °F 93% 29.59 in 9.0 mi SSE 8.1 mph - N/A Rain Light Rain
4:51 AM 35.6 °F 28.0 °F 35.6 °F 100% 29.61 in 9.0 mi SSE 10.4 mph 19.6 mph N/A Rain Light Rain
4:52 AM 35.6 °F 28.0 °F 35.6 °F 100% 29.61 in 9.0 mi SSE 10.4 mph 19.6 mph N/A Rain Light Rain
4:53 AM 35.6 °F 28.0 °F 35.6 °F 100% 29.61 in 8.0 mi SSE 10.4 mph 19.6 mph N/A Rain Light Rain
5:00 AM 35.6 °F 28.0 °F 35.6 °F 100% 29.61 in 6.0 mi SE 10.4 mph 18.4 mph N/A Rain Light Rain
5:01 AM 35.6 °F 28.0 °F 35.6 °F 100% 29.61 in 6.0 mi SE 10.4 mph 18.4 mph N/A Rain Light Rain
7:00 AM 35.6 °F 27.1 °F 33.8 °F 93% 29.67 in 9.0 mi SE 12.7 mph - N/A   Scattered Clouds
7:28 AM 35.6 °F 27.5 °F 33.8 °F 93% 29.68 in 9.0 mi ESE 11.5 mph - N/A Rain Light Rain
7:37 AM 35.6 °F 28.0 °F 33.8 °F 93% 29.68 in 9.0 mi ESE 10.4 mph - N/A   Partly Cloudy
9:00 AM 35.6 °F 25.5 °F 33.8 °F 93% 29.71 in 9.0 mi SE 17.3 mph 23.0 mph N/A   Partly Cloudy
9:32 AM 33.8 °F 24.3 °F 33.8 °F 100% 29.71 in 9.0 mi ESE 13.8 mph 20.7 mph N/A Rain Light Rain
9:45 AM 35.6 °F 26.6 °F 33.8 °F 93% 29.72 in 9.0 mi ESE 13.8 mph 19.6 mph N/A   Scattered Clouds
10:00 AM 35.6 °F 26.6 °F 32.0 °F 87% 29.72 in 9.0 mi ESE 13.8 mph - N/A   Partly Cloudy
10:51 AM 37.4 °F 28.5 °F 32.0 °F 81% 29.73 in 9.0 mi SE 15.0 mph - N/A Rain Light Rain
10:55 AM 35.6 °F 27.5 °F 33.8 °F 93% 29.74 in 9.0 mi SE 11.5 mph 18.4 mph N/A Rain Light Rain
11:00 AM 35.6 °F 26.6 °F 33.8 °F 93% 29.74 in 6.0 mi SSE 13.8 mph 24.2 mph N/A Rain Rain
11:03 AM 35.6 °F 27.1 °F 33.8 °F 93% 29.75 in 5.0 mi SE 12.7 mph 24.2 mph N/A Rain Rain
11:08 AM 35.6 °F 27.1 °F 33.8 °F 93% 29.74 in 4.0 mi SE 12.7 mph 21.9 mph N/A Rain , Snow Snow
11:11 AM 35.6 °F 28.0 °F 33.8 °F 93% 29.74 in 3.0 mi SE 10.4 mph 21.9 mph N/A Rain , Snow Snow
11:13 AM 35.6 °F 27.1 °F 33.8 °F 93% 29.74 in 3.0 mi SE 12.7 mph 21.9 mph N/A Snow Light Snow
11:16 AM 35.6 °F 28.0 °F 33.8 °F 93% 29.74 in 4.0 mi ESE 10.4 mph 18.4 mph N/A   Overcast
11:19 AM 35.6 °F 28.0 °F 33.8 °F 93% 29.74 in 6.0 mi ESE 10.4 mph - N/A   Overcast
11:24 AM 35.6 °F 28.0 °F 33.8 °F 93% 29.74 in 8.0 mi ESE 10.4 mph - N/A Rain Rain
11:34 AM 35.6 °F 27.5 °F 33.8 °F 93% 29.74 in 9.0 mi ESE 11.5 mph - N/A Rain Light Rain
11:45 AM 35.6 °F 27.5 °F 33.8 °F 93% 29.74 in 8.0 mi ESE 11.5 mph 18.4 mph N/A Rain Light Rain
11:50 AM 35.6 °F 27.1 °F 33.8 °F 93% 29.74 in 8.0 mi ESE 12.7 mph - N/A Rain Light Rain
12:00 PM 37.4 °F 29.3 °F 33.8 °F 87% 29.73 in 9.0 mi ESE 12.7 mph - N/A Rain Light Rain
12:07 PM 37.4 °F 29.3 °F 33.8 °F 87% 29.73 in 9.0 mi ESE 12.7 mph 21.9 mph N/A   Mostly Cloudy
12:26 PM 37.4 °F 29.3 °F 33.8 °F 87% 29.74 in 9.0 mi SE 12.7 mph 18.4 mph N/A Rain Light Rain
12:57 PM 35.6 °F 25.9 °F 33.8 °F 93% 29.75 in 9.0 mi SE 16.1 mph - N/A   Overcast
1:00 PM 35.6 °F 26.6 °F 35.6 °F 100% 29.75 in 9.0 mi SE 13.8 mph 19.6 mph N/A   Overcast
1:07 PM 37.4 °F 28.9 °F 35.6 °F 93% 29.75 in 9.0 mi SE 13.8 mph - N/A Rain Light Rain
1:18 PM 35.6 °F 27.5 °F 35.6 °F 100% 29.75 in 9.0 mi SE 11.5 mph 18.4 mph N/A   Mostly Cloudy
1:20 PM 37.4 °F 28.9 °F 35.6 °F 93% 29.75 in 8.0 mi SE 13.8 mph - N/A Rain Light Rain
1:38 PM 37.4 °F 29.8 °F 35.6 °F 93% 29.75 in 9.0 mi SE 11.5 mph 19.6 mph N/A   Overcast
2:00 PM 37.4 °F 28.9 °F 35.6 °F 93% 29.76 in 9.0 mi SE 13.8 mph 20.7 mph N/A   Overcast
2:52 PM 37.4 °F 30.8 °F 35.6 °F 93% 29.78 in 9.0 mi SSE 9.2 mph - N/A Rain Light Rain
3:00 PM 37.4 °F 31.4 °F 35.6 °F 93% 29.78 in 9.0 mi SSE 8.1 mph - N/A Rain Light Rain
3:11 PM 37.4 °F 30.3 °F 35.6 °F 93% 29.78 in 9.0 mi SSE 10.4 mph - N/A   Mostly Cloudy
3:40 PM 37.4 °F 30.3 °F 35.6 °F 93% 29.79 in 9.0 mi SSE 10.4 mph 19.6 mph N/A Rain Light Rain
3:59 PM 37.4 °F 30.8 °F 33.8 °F 87% 29.81 in 4.0 mi SW 9.2 mph - N/A Rain Light Rain
4:00 PM 35.6 °F 29.2 °F 33.8 °F 93% 29.81 in 2.5 mi SW 8.1 mph - N/A Rain Heavy Rain
4:03 PM 35.6 °F 29.9 °F 33.8 °F 93% 29.81 in 2.0 mi South 6.9 mph - N/A   Overcast
4:04 PM 35.6 °F 29.9 °F 33.8 °F 93% 29.81 in 1.8 mi South 6.9 mph - N/A   Overcast
4:08 PM 33.8 °F 29.6 °F 33.8 °F 100% 29.81 in 1.5 mi SSE 4.6 mph - N/A Snow Light Snow
4:09 PM 33.8 °F 29.6 °F 33.8 °F 100% 29.81 in 2.0 mi SSE 4.6 mph - N/A Snow Light Snow
4:12 PM 33.8 °F 29.6 °F 33.8 °F 100% 29.81 in 3.0 mi SSE 4.6 mph - N/A Snow Light Snow
4:14 PM 33.8 °F 29.6 °F 33.8 °F 100% 29.81 in 5.0 mi SSE 4.6 mph - N/A Rain , Snow Light Snow
4:15 PM 33.8 °F 28.6 °F 33.8 °F 100% 29.81 in 8.0 mi SSE 5.8 mph - N/A Rain , Snow Light Snow
4:17 PM 35.6 °F 30.7 °F 33.8 °F 93% 29.81 in 9.0 mi SE 5.8 mph - N/A Rain Light Rain
4:21 PM 35.6 °F 30.7 °F 33.8 °F 93% 29.81 in 9.0 mi SE 5.8 mph - N/A Rain Light Rain
4:29 PM 35.6 °F 30.7 °F 33.8 °F 93% 29.81 in 9.0 mi SSE 5.8 mph - N/A   Overcast
5:32 PM 37.4 °F 30.8 °F 35.6 °F 93% 29.82 in 9.0 mi SE 9.2 mph - N/A   Overcast
5:34 PM 37.4 °F 30.3 °F 33.8 °F 87% 29.82 in 9.0 mi SE 10.4 mph - N/A   Overcast
5:36 PM 37.4 °F 30.3 °F 33.8 °F 87% 29.82 in 9.0 mi SE 10.4 mph - N/A   Overcast
6:00 PM 39.2 °F 32.0 °F 33.8 °F 81% 29.82 in 9.0 mi SSW 11.5 mph 21.9 mph N/A   Overcast
6:43 PM 39.2 °F 31.2 °F 33.8 °F 81% 29.84 in 9.0 mi SW 13.8 mph - N/A Rain Light Rain
7:00 PM 37.4 °F 28.9 °F 33.8 °F 87% 29.85 in 9.0 mi SW 13.8 mph 26.5 mph N/A Rain Light Rain
7:17 PM 35.6 °F 28.6 °F 33.8 °F 93% 29.85 in 9.0 mi South 9.2 mph 18.4 mph N/A Rain Light Rain
7:20 PM 35.6 °F 29.2 °F 33.8 °F 93% 29.85 in 8.0 mi South 8.1 mph 18.4 mph N/A Rain Light Rain
7:25 PM 35.6 °F 30.7 °F 33.8 °F 93% 29.85 in 8.0 mi South 5.8 mph - N/A   Overcast
7:31 PM 35.6 °F 29.9 °F 33.8 °F 93% 29.85 in 9.0 mi South 6.9 mph - N/A   Mostly Cloudy
7:33 PM 35.6 °F 29.9 °F 33.8 °F 93% 29.85 in 9.0 mi South 6.9 mph - N/A   Mostly Cloudy
8:00 PM 35.6 °F 28.6 °F 33.8 °F 93% 29.86 in 9.0 mi SSE 9.2 mph - N/A   Overcast
9:00 PM 35.6 °F 28.6 °F 33.8 °F 93% 29.87 in 9.0 mi SE 9.2 mph - N/A   Scattered Clouds
10:00 PM 35.6 °F 28.0 °F 32.0 °F 87% 29.88 in 9.0 mi SE 10.4 mph - N/A   Mostly Cloudy
11:00 PM 35.6 °F 27.1 °F 33.8 °F 93% 29.89 in 9.0 mi SE 12.7 mph - N/A   Overcast